Regional Weather Roundup
Issued by NWS Portland, ME

Home | Current Version | Previous Version | Text Only | Print | Product List | Glossary On
Versions: 1 2 3 4 5 6 7 8 9 10 11 12 13 14 15 16 17 18 19 20 21 22 23 24 25 26 27 28 29 30 31 32 33 34 35 36 37 38 39 40 41 42 43 44 45 46 47 48 49 50
000
ASUS41 KGYX 241510
RWRGYX
WEATHER ROUNDUP FOR MAINE AND NEW HAMPSHIRE
NATIONAL WEATHER SERVICE GRAY ME
1000 AM EST TUE JAN 24 2017

MEZ002-005-006-010-012-015-018-020-021-024-026-027-029-241600-
MAINE

CITY           SKY/WX    TMP DP  RH WIND       PRES   REMARKS
PORTLAND       LGTSLEET  30  28  92 NE16      29.65F VSB 3/4 WCI  19
SANFORD        LGT SNOW  28  26  92 NE20      29.61F VSB 3/4 WCI  15
BAR HARBOR     MIX PCPN  32  30  92 NE14G28   29.73F FOG
WISCASSET      FRZ RAIN  32  30  92 VRB6      29.70S FOG
ROCKLAND       LGT RAIN  33  31  92 NE22G30   29.68F FOG
FRYEBURG       LGT SNOW  29  26  89 N10G20    29.71R FOG     WCI  20
LEWISTONAUBURN LGT SNOW  28  26  92 NE13G22   29.69S FOG     WCI  17
AUGUSTA        MIX PCPN  25  21  85 NE20G29   29.71F VSB 3/4 WCI  11
WATERVILLE     LGT SNOW  26  24  92 NE16G23   29.71F VSB 1   WCI  14
BANGOR         HVYSLEET  27  24  89 NE22G33   29.80F FOG     WCI  13
GREENVILLE       N/A     23  22  96 NE10      29.77F WCI  12
MILLINOCKET    LGT SNOW  23  18  81 NE12G21   29.95F WCI  12
HOULTON        CLOUDY    27  13  55 NE12      29.99S WCI  17
PRESQUE ISLE   CLOUDY    24  15  68 NE8       30.04F
FRENCHVILLE    CLOUDY    22   7  52 E12       30.03F WCI  10
CARIBOU        CLOUDY    24  13  62 NE9       30.03F
$$

NHZ002-005-008-009-011-012-014-241600-
NEW HAMPSHIRE

CITY           SKY/WX    TMP DP  RH WIND       PRES   REMARKS
PORTSMOUTH     LGT RAIN  35  33  91 NE25G35   29.54F FOG
ROCHESTER      LGT SNOW  28  25  88 N14G22    29.59F VSB 3/4 WCI  17
NASHUA         LGT SNOW  30  30 100 N10G23    29.56F FOG
MANCHESTER     LGT SNOW  31  26  82 N17       29.55F WCI  19
CONCORD        CLOUDY    31  25  78 NE15G25   29.61R HAZE
LACONIA        LGT SNOW  29  26  89 E18G29    29.62R FOG     WCI  16
PLYMOUTH       CLOUDY    35  30  83 E9G18     29.63R
BERLIN         MIX PCPN  29  25  85 CALM      29.67F FOG
WHITEFIELD     MIX PCPN  32  24  72 E15G36    29.59F
JAFFREY        CLOUDY    30  27  88 N10G21    29.51F FOG
KEENE          CLOUDY    32  28  85 N14G23    29.55F
LEBANON        CLOUDY    33  32  96 CALM      29.61R FOG
MT WASHINGTON  SLEET     19  19 100 E75G99      N/A  VSB 0   WCI  -7
$$

VTZ005-007-008-241600-
VERMONT

CITY           SKY/WX    TMP DP  RH WIND       PRES   REMARKS
ST JOHNSBURY     N/A     32  30  92 MISG      29.61F
MONTPELIER     LGT SNOW  31  31 100 N6        29.64S VSB 1
BURLINGTON     SLEET     30  28  92 N13       29.65R FOG     WCI  20
$$

MAZ007-012-024-CTZ003-RIZ002-NYZ038-NYZ072-241600-
SOUTHERN NEW ENGLAND AND NY

CITY           SKY/WX    TMP DP  RH WIND       PRES   REMARKS
BOSTON         LGT RAIN  41  40  96 N30G37    29.45F FOG
WORCESTER      LGT SNOW  29  28  96 NE17G31   29.43F FOG     WCI  17
NANTUCKET      CLOUDY    54  52  93 E15       29.26F FOG
PROVIDENCE     LGT RAIN  43  39  86 N25G35    29.38F FOG
HARTFORD       LGT RAIN  36  29  75 N21G32    29.45F
ALBANY         FLURRIES  33  30  88 N9        29.55S
NEW YORK CITY  LGT RAIN  39  35  86 N20G25    29.35S FOG
$$

ANZ081-ANZ082-ANZ150-NHZ014-MEZ023>029-241600-
COASTAL MARINE OBSERVATIONS

STATION/POSITION TIME  TEMP    WIND        PRES    WAVE
                       AIR SEA DIR/SP/G            HT/PER
                 (UTC) (F)     (DEG/KT/KT) (MB)    (FT/S)
MOUNT DESERT ROC 1500   38                 1003.5F
MATINICUS ROCK   1400   37      70/ 47/ 53 1002.4F
ISLE OF SHOALS   1400   39      40/ 38/ 49  998.6F
CASHES LEDGE BUO 1450   42 46   90/ 35/ 47  998.1F  23/11
GEORGES BANK BUO 1450   54 44               996.1F  16/11
$$

.............KEY..............
   WCI - WIND CHILL
   TC  - TEMPERATURE IN CELSIUS
   VSB - VISIBILITY IN MILES
   HX  - HEAT INDEX
   FAIR- INDICATES FEW OR NO CLOUDS BELOW 12,000 FT, WITH NO
         SIGNIFICANT WEATHER AND/OR OBSTRUCTIONS TO VISIBILITY.





USA.gov is the U.S. government's official web portal to all federal, state and local government web resources and services.